Weather in Sosnovyy Bor

Russia / Irkutsk Oblast     52°39′28″N   104°30′14″E
temp.,
°C
wind,
m/s
gust,
m/s
humid.,
%
clouds,
%
prec.,
mm/h
press.,
hPa
HPBL,
m
24 july, sat
sat2423:00+15nw22750 0.0 101118
02:00+12nnw22880 0.0 101213
05:00+11nnw11923 0.0 101310
08:00+15e11800 0.0 1012261
11:00+19ese12650 0.0 1012842
14:00+23e23515 0.0 10091200
17:00+24ese34483 0.0 10081274
20:00+20e377316 0.0 1008154
25 july, sun
sun2523:00+16ene227710 0.0 100921
02:00+13ene118784 0.0 101011
05:00+12ene11882 0.0 100910
08:00+17ese11750 0.0 1009169
11:00+22se12605 0.0 1008750
14:00+25sse33511 0.0 10061273
17:00+26sse22471 0.0 1005916
20:00+22sse1270100 0.0 100626
26 july, mon
mon2623:00+18sse236780 0.0 100773
02:00+16e217198 0.0 100820
05:00+14e2269100 0.0 100728
08:00+16e226745 0.0 1008175
11:00+22ese235487 0.0 1006718
14:00+26ese244381 0.0 10041740
17:00+26ese5648100 0.0 10031478
20:00+21sse376671 0.0 1004149
27 july, tue
tue2723:00+17ne2270100 0.0 100414
02:00+14ene22779 0.0 100419
05:00+13ene35805 0.0 100368
08:00+17e367034 0.0 1003285
11:00+22se4658100 0.0 1002934
14:00+21se486394 0.0 1001407
17:00+24ese465766 0.0 999400
20:00+21ese34685 0.0 100053
28 july, wed
wed2823:00+15ene11795 0.0 100211
02:00+13ene11804 0.0 100211
05:00+12ne22854 0.0 100311
08:00+16wsw10715 0.0 1003195
11:00+22wnw22555 0.0 1003871
14:00+24w645563 0.3 10011272
17:00+21nw776536 1.4 10021063
20:00+17wnw61078100 1.4 1004640